{"data":{"norad_id":65255,"epoch":"2026-05-25T02:25:20.900640Z","epoch_age_seconds":69406,"freshness":"FRESH","line1":"1 65255U 25179W   26145.10093635  .00001607  00000+0  11537-3 0  9995","line2":"2 65255  97.4455 187.8790 0002430 108.6723 251.4768 15.05657501 43303","mean_motion":15.05657501,"eccentricity":0.000243,"inclination_deg":97.4455,"raan_deg":187.879,"arg_perigee_deg":108.6723,"mean_anomaly_deg":251.4768,"bstar":0.00011537,"rev_number":4330,"period_min":95.639280450143,"perigee_km":547.80473265042,"apogee_km":551.17155847116,"semimajor_km":6927.6251455608,"source":"CELESTRAK","updated_at":"2026-05-25T13:38:20.728285Z"}}